Back to catalog

SL-16 DEB

AliveLEO
NORAD 39865·DEBRIS·🇷🇺 Russia

Launched Dec 25, 1992 from Baikonur Cosmodrome

Loading…

Next Passes (next 24 hours)

TLE

FreshSource: Space-Track

Epoch: Sep 13, 2026, 07:00 UTC

1 39865U 92093LT  26256.29218522  .00001069  00000-0  36059-3 0  9998
2 39865  71.0115 225.9128 0005191 209.3945 150.6900 14.39242485641908

Track SL-16 DEB in real time with AllMySat

Download on the App Store